(48786) = 1997 SH4 = 2001 KV26

Discovered at Oizumi on 1997-09-27 by T. Kobayashi.

Orbit

Orbit type: Main Belt

Note: WebGL enabled browser required.

epoch2024-03-31.0
epoch JD2460400.5
perihelion date2022-12-03.94843
perihelion JD2459917.44843
argument of perihelion (°)128.81654
ascending node (°)223.54393
inclination (°)4.06766
eccentricity0.1665646
perihelion distance (AU)2.4568684
Tisserand w.r.t. Jupiter3.2
ΔV w.r.t. Earth (km/sec)9.9
semimajor axis (AU)2.9478810
mean anomaly (°)94.06594
mean daily motion (°/day)0.19473270
aphelion distance (AU)3.439
period (years)5.06
P-vector [x]0.98977192
P-vector [y]-0.14264981
P-vector [z]-0.00160629
Q-vector [x]0.13402804
Q-vector [y]0.92597513
Q-vector [z]0.35299653
absolute magnitude14.56
phase slope0.15
uncertainty0
referenceMPEC 2024-C37
observations used1607
oppositions22
arc length (days)10929
first opposition used1994
last opposition used2024
residual rms (arc-secs)0.67
perturbers coarse indicatorM-v
perturbers precise indicator003Ek
first observation date used1994-02-12.0
last observation date used2024-01-15.0
computer nameMPCLINUX
JD of orbit computation2456700.219425
perihelion JD uncertainty (days)7.0762E-05
argument of perihelion uncertainty (°)7.2579E-05
ascending node uncertainty (°)7.1154E-05
inclination uncertainty (°)5.1677E-06
eccentricity uncertainty 5.3485E-08
perihelion distance uncertainty (AU)1.6193E-07
Minimum Orbit Intersection Distances (in AU)
for orbit epoch: 2460200.5, reference: E2024-C37
Mercury2.08641
Venus1.73793
Earth1.45497
Mars1.07668
Jupiter2.01266
Saturn5.89881
Uranus15.0183
Neptune27.0662

Observations

1652 total observations over interval: 1994 02 12.16295 – 2024 01 15.397865
These data are available for download (format description).

Date (UT) J2000 RA J2000 Dec Magn Location Ref
1994 02 12.16295 07 43 46.53 +15 41 47.5   691 – Steward Observatory, Kitt Peak-Spacewatch MPS 31182
1994 02 12.18516 07 43 45.60 +15 41 48.5   691 – Steward Observatory, Kitt Peak-Spacewatch MPS 31182
1994 02 12.20814 07 43 44.83 +15 41 52.5 19.4 V 691 – Steward Observatory, Kitt Peak-Spacewatch MPS 31182
1997 09 27.63902 00 54 40.48 +09 47 04.6 17   411 – Oizumi MPS 28
1997 09 27.65955 00 54 39.54 +09 46 57.6   411 – Oizumi MPS 28
1997 09 28.57146 00 54 00.19 +09 41 33.4   411 – Oizumi MPS 28
1997 09 28.58173 00 53 59.81 +09 41 30.3   411 – Oizumi MPS 28
1997 09 30.52152 00 52 34.62 +09 29 44.4   411 – Oizumi MPS 28
1997 09 30.52753 00 52 34.25 +09 29 43.1   411 – Oizumi MPS 28
1997 10 05.49803 00 48 51.79 +08 58 15.5   411 – Oizumi MPS 28
1997 10 05.50406 00 48 51.46 +08 58 14.1   411 – Oizumi MPS 28
1997 10 12.53701 00 43 39.16 +08 11 57.4   411 – Oizumi MPS 111
1997 10 12.54169 00 43 38.86 +08 11 56.0   411 – Oizumi MPS 111
1997 10 25.59214 00 35 14.38 +06 49 17.4   411 – Oizumi MPS 112
1997 10 25.59520 00 35 14.35 +06 49 17.4   411 – Oizumi MPS 112
1997 10 29.37813 00 33 19.39 +06 27 57.7 18.7 V 566 – Haleakala-NEAT/GEODSS MPS 112
1997 10 29.38797 00 33 19.07 +06 27 54.7 18.9 V 566 – Haleakala-NEAT/GEODSS MPS 112
1997 10 29.39786 00 33 18.78 +06 27 51.4 18.6 V 566 – Haleakala-NEAT/GEODSS MPS 112
1997 10 30.16114 00 32 58.03 +06 23 44.8   704 – Lincoln Laboratory ETS, New Mexico MPS 107099
1997 10 30.17867 00 32 57.53 +06 23 39.1   704 – Lincoln Laboratory ETS, New Mexico MPS 107099
1997 10 30.19596 00 32 57.06 +06 23 34.3   704 – Lincoln Laboratory ETS, New Mexico MPS 107099
1997 10 30.21334 00 32 56.49 +06 23 29.2   704 – Lincoln Laboratory ETS, New Mexico MPS 107099
1997 10 30.23139 00 32 55.92 +06 23 24.3   704 – Lincoln Laboratory ETS, New Mexico MPS 107099
2000 04 10.21841 11 32 44.64 -01 08 43.1 20.7 R 695 – Kitt Peak MPS 31182
2000 04 10.30115 11 32 41.72 -01 08 18.5   695 – Kitt Peak MPS 31182
2001 05 17.32773 16 32 42.83 -19 44 54.7 18.7   704 – Lincoln Laboratory ETS, New Mexico MPS 31353
2001 05 17.33996 16 32 42.34 -19 44 53.4 18.9   704 – Lincoln Laboratory ETS, New Mexico MPS 31353
2001 05 17.35191 16 32 41.78 -19 44 51.6 18.5   704 – Lincoln Laboratory ETS, New Mexico MPS 31353
2001 05 17.36381 16 32 41.11 -19 44 49.2 19.1   704 – Lincoln Laboratory ETS, New Mexico MPS 31353
2001 05 24.33355 16 26 55.63 -19 23 09.9 18.7   704 – Lincoln Laboratory ETS, New Mexico MPS 31353
2001 05 24.34561 16 26 54.97 -19 23 07.1 19.4   704 – Lincoln Laboratory ETS, New Mexico MPS 31353
2001 05 24.35741 16 26 54.39 -19 23 05.2 19.2   704 – Lincoln Laboratory ETS, New Mexico MPS 31353
2001 05 24.36918 16 26 53.79 -19 23 02.8 18.8   704 – Lincoln Laboratory ETS, New Mexico MPS 31353
2001 05 24.38168 16 26 53.16 -19 23 00.3 18.7   704 – Lincoln Laboratory ETS, New Mexico MPS 31353
2002 07 14.36315 00 21 01.29 +06 57 28.8 19.1   704 – Lincoln Laboratory ETS, New Mexico MPS 58659
2002 07 14.37623 00 21 01.83 +06 57 32.9 19.2   704 – Lincoln Laboratory ETS, New Mexico MPS 58659
2002 07 14.38933 00 21 02.33 +06 57 37.3 19.5   704 – Lincoln Laboratory ETS, New Mexico MPS 58659
2002 07 14.40241 00 21 02.86 +06 57 41.7 19.5   704 – Lincoln Laboratory ETS, New Mexico MPS 58659
2002 07 14.41548 00 21 03.37 +06 57 45.6 19.7   704 – Lincoln Laboratory ETS, New Mexico MPS 58659
2002 09 06.26741 00 25 13.01 +07 49 13.1 19.1   704 – Lincoln Laboratory ETS, New Mexico MPS 60713
2002 09 06.28132 00 25 12.47 +07 49 09.9 18.7   704 – Lincoln Laboratory ETS, New Mexico MPS 60713
2002 09 06.29518 00 25 12.10 +07 49 06.2 19.2   704 – Lincoln Laboratory ETS, New Mexico MPS 60713
2002 09 06.30901 00 25 11.57 +07 49 02.9 20.1   704 – Lincoln Laboratory ETS, New Mexico MPS 60713
2002 09 06.32304 00 25 11.05 +07 48 59.7 18.8   704 – Lincoln Laboratory ETS, New Mexico MPS 60713
2002 09 14.44131 00 20 13.89 +07 11 43.1 17.1   644 – Palomar Mountain/NEAT MPS 60713
2002 09 14.45167 00 20 13.46 +07 11 39.9 17.1   644 – Palomar Mountain/NEAT MPS 60713
2002 09 14.46339 00 20 12.97 +07 11 36.2 17.2   644 – Palomar Mountain/NEAT MPS 60713
2002 10 04.25452 00 06 02.52 +05 10 30.8 18.7   704 – Lincoln Laboratory ETS, New Mexico MPS 62529
2002 10 04.27007 00 06 01.78 +05 10 22.6 19.8   704 – Lincoln Laboratory ETS, New Mexico MPS 62529
2002 10 04.28587 00 06 01.14 +05 10 16.8 18.3   704 – Lincoln Laboratory ETS, New Mexico MPS 62529
2002 10 04.30153 00 06 00.44 +05 10 10.2 19.5   704 – Lincoln Laboratory ETS, New Mexico MPS 62529
2002 10 07.17261 00 04 02.58 +04 51 23.3 17.2 R 699 – Lowell Observatory-LONEOS MPS 62529
2002 10 07.19437 00 04 01.64 +04 51 15.0   699 – Lowell Observatory-LONEOS MPS 62529
2002 10 07.21607 00 04 00.74 +04 51 06.7   699 – Lowell Observatory-LONEOS MPS 62529
2002 10 07.23770 00 03 59.81 +04 50 58.2   699 – Lowell Observatory-LONEOS MPS 62529
2002 10 08.26256 00 03 18.94 +04 44 19.1 17.9   704 – Lincoln Laboratory ETS, New Mexico MPS 62529
2002 10 08.26266 00 03 18.90 +04 44 19.5 17.7   704 – Lincoln Laboratory ETS, New Mexico MPS 62529
2002 10 08.27822 00 03 18.29 +04 44 13.4 17.8   704 – Lincoln Laboratory ETS, New Mexico MPS 62529
2002 10 08.27832 00 03 18.26 +04 44 13.5 17.8   704 – Lincoln Laboratory ETS, New Mexico MPS 62529
2002 10 08.30974 00 03 17.01 +04 44 01.2 17.9   704 – Lincoln Laboratory ETS, New Mexico MPS 62529
2002 10 08.30983 00 03 16.96 +04 44 01.1 17.4   704 – Lincoln Laboratory ETS, New Mexico MPS 62529
2002 10 12.17847 00 00 50.92 +04 19 22.3 17.8   704 – Lincoln Laboratory ETS, New Mexico MPS 62529
2002 10 12.17857 00 00 50.98 +04 19 21.3 17.8   704 – Lincoln Laboratory ETS, New Mexico MPS 62529
2002 10 12.19493 00 00 50.30 +04 19 15.9 18.1   704 – Lincoln Laboratory ETS, New Mexico MPS 62529
2002 10 12.19504 00 00 50.34 +04 19 16.1 17.9   704 – Lincoln Laboratory ETS, New Mexico MPS 62529
2002 10 12.22767 00 00 49.09 +04 19 02.9 17.7   704 – Lincoln Laboratory ETS, New Mexico MPS 62529
2002 10 12.22777 00 00 49.08 +04 19 03.1 17.9   704 – Lincoln Laboratory ETS, New Mexico MPS 62529
2002 10 12.24389 00 00 48.45 +04 18 57.4 17.8   704 – Lincoln Laboratory ETS, New Mexico MPS 62529
2002 10 12.24399 00 00 48.48 +04 18 57.7 17.8   704 – Lincoln Laboratory ETS, New Mexico MPS 62529
2002 10 28.35545 23 53 40.14 +02 51 46.7 19.1   608 – Haleakala-AMOS MPS 65309
2002 10 28.36644 23 53 39.96 +02 51 43.8 19.1   608 – Haleakala-AMOS MPS 65309
2002 10 28.37711 23 53 39.76 +02 51 41.2 19.1   608 – Haleakala-AMOS MPS 65309
2002 10 31.16870 23 53 01.45 +02 40 07.2 18.6   704 – Lincoln Laboratory ETS, New Mexico MPS 65309
2002 10 31.18589 23 53 01.19 +02 40 02.5 18.4   704 – Lincoln Laboratory ETS, New Mexico MPS 65309
2002 10 31.20319 23 53 00.98 +02 39 58.0 18.8   704 – Lincoln Laboratory ETS, New Mexico MPS 65309
2002 10 31.22046 23 53 00.73 +02 39 54.7 18.4   704 – Lincoln Laboratory ETS, New Mexico MPS 65309
2002 10 31.23755 23 53 00.50 +02 39 50.4 18.7   704 – Lincoln Laboratory ETS, New Mexico MPS 65309
2002 11 06.15534 23 52 18.48 +02 19 38.4 18.8   704 – Lincoln Laboratory ETS, New Mexico MPS 65309
2002 11 06.17177 23 52 18.44 +02 19 35.5 19.7   704 – Lincoln Laboratory ETS, New Mexico MPS 65309
2002 11 06.18820 23 52 18.33 +02 19 31.7 20.0   704 – Lincoln Laboratory ETS, New Mexico MPS 65309
2002 11 06.20462 23 52 18.20 +02 19 29.9 19.5   704 – Lincoln Laboratory ETS, New Mexico MPS 65309
2002 11 06.22114 23 52 18.12 +02 19 26.0 19.9   704 – Lincoln Laboratory ETS, New Mexico MPS 65309
2002 12 05.10133 00 01 19.24 +02 08 29.8 19.6   704 – Lincoln Laboratory ETS, New Mexico MPS 69274
2002 12 05.11662 00 01 19.79 +02 08 32.1 19.2   704 – Lincoln Laboratory ETS, New Mexico MPS 69274
2002 12 05.13179 00 01 20.32 +02 08 35.1 18.8   704 – Lincoln Laboratory ETS, New Mexico MPS 69274
2002 12 10.07138 00 04 43.87 +02 20 21.8 18.6 C 704 – Lincoln Laboratory ETS, New Mexico MPS 290834
2002 12 10.08687 00 04 44.56 +02 20 23.8 19.0 C 704 – Lincoln Laboratory ETS, New Mexico MPS 290834
2002 12 10.10226 00 04 45.28 +02 20 25.5 18.9 C 704 – Lincoln Laboratory ETS, New Mexico MPS 290834
2002 12 10.11750 00 04 45.90 +02 20 29.1 19.3 C 704 – Lincoln Laboratory ETS, New Mexico MPS 290834
